TimeMST,TemperatureF,Dew PointF,Humidity,Sea Level PressureIn,VisibilityMPH,Wind Direction,Wind SpeedMPH,Gust SpeedMPH,PrecipitationIn,Events,Conditions,WindDirDegrees,DateUTC
12:15 AM,73.4,19.4,13,29.87,10.0,West,6.9,-,N/A,,Clear,270,2013-05-21 07:15:00
12:35 AM,71.6,19.4,14,29.86,10.0,West,5.8,-,N/A,,Clear,270,2013-05-21 07:35:00
12:55 AM,71.6,19.4,14,29.86,10.0,West,3.5,-,N/A,,Clear,270,2013-05-21 07:55:00
1:15 AM,71.6,19.4,14,29.86,10.0,West,5.8,-,N/A,,Clear,280,2013-05-21 08:15:00
1:35 AM,71.6,19.4,14,29.86,10.0,WNW,5.8,-,N/A,,Clear,300,2013-05-21 08:35:00
1:55 AM,69.8,21.2,16,29.86,10.0,Calm,Calm,-,N/A,,Clear,0,2013-05-21 08:55:00
2:15 AM,68.0,21.2,17,29.86,10.0,ESE,3.5,-,N/A,,Clear,120,2013-05-21 09:15:00
2:35 AM,64.4,21.2,19,29.86,10.0,Calm,Calm,-,N/A,,Clear,0,2013-05-21 09:35:00
2:55 AM,62.6,19.4,19,29.86,10.0,NE,3.5,-,N/A,,Clear,50,2013-05-21 09:55:00
3:15 AM,64.4,21.2,19,29.86,10.0,Calm,Calm,-,N/A,,Clear,0,2013-05-21 10:15:00
3:35 AM,64.4,21.2,19,29.86,10.0,North,4.6,-,N/A,,Clear,10,2013-05-21 10:35:00
3:55 AM,62.6,19.4,19,29.87,10.0,Calm,Calm,-,N/A,,Clear,0,2013-05-21 10:55:00
4:15 AM,62.6,21.2,20,29.87,10.0,East,8.1,-,N/A,,Clear,80,2013-05-21 11:15:00
4:35 AM,64.4,23.0,21,29.87,10.0,ENE,4.6,-,N/A,,Clear,70,2013-05-21 11:35:00
4:55 AM,60.8,23.0,23,29.88,10.0,NE,4.6,-,N/A,,Clear,50,2013-05-21 11:55:00
5:15 AM,60.8,21.2,22,29.87,10.0,Calm,Calm,-,N/A,,Clear,0,2013-05-21 12:15:00
5:35 AM,60.8,21.2,22,29.88,10.0,North,4.6,-,N/A,,Clear,10,2013-05-21 12:35:00
5:55 AM,60.8,21.2,22,29.89,10.0,North,5.8,-,N/A,,Clear,10,2013-05-21 12:55:00
6:15 AM,62.6,23.0,22,29.90,10.0,NNE,4.6,-,N/A,,Clear,30,2013-05-21 13:15:00
6:35 AM,64.4,24.8,22,29.91,10.0,ENE,3.5,-,N/A,,Clear,70,2013-05-21 13:35:00
6:55 AM,66.2,24.8,21,29.91,10.0,Calm,Calm,-,N/A,,Clear,0,2013-05-21 13:55:00
7:15 AM,69.8,24.8,18,29.92,10.0,Calm,Calm,-,N/A,,Clear,0,2013-05-21 14:15:00
7:35 AM,71.6,23.0,16,29.92,10.0,Calm,Calm,-,N/A,,Clear,0,2013-05-21 14:35:00
7:55 AM,71.6,24.8,17,29.92,10.0,East,3.5,-,N/A,,Clear,100,2013-05-21 14:55:00
8:15 AM,73.4,24.8,16,29.92,10.0,Calm,Calm,-,N/A,,Clear,0,2013-05-21 15:15:00
8:35 AM,75.2,24.8,15,29.92,10.0,Calm,Calm,-,N/A,,Clear,0,2013-05-21 15:35:00
8:55 AM,78.8,24.8,14,29.92,10.0,Calm,Calm,-,N/A,,Clear,0,2013-05-21 15:55:00
9:15 AM,80.6,24.8,13,29.92,10.0,Calm,Calm,-,N/A,,Clear,0,2013-05-21 16:15:00
9:35 AM,82.4,24.8,12,29.92,10.0,Calm,Calm,-,N/A,,Clear,0,2013-05-21 16:35:00
9:55 AM,84.2,26.6,12,29.91,10.0,SSE,3.5,-,N/A,,Clear,160,2013-05-21 16:55:00
10:15 AM,84.2,26.6,12,29.91,10.0,Calm,Calm,-,N/A,,Clear,0,2013-05-21 17:15:00
10:35 AM,84.2,24.8,11,29.91,10.0,Calm,Calm,-,N/A,,Clear,0,2013-05-21 17:35:00
10:55 AM,87.8,26.6,11,29.90,10.0,Calm,Calm,-,N/A,,Clear,0,2013-05-21 17:55:00
11:15 AM,87.8,26.6,11,29.90,10.0,ESE,4.6,-,N/A,,Clear,120,2013-05-21 18:15:00
11:35 AM,89.6,26.6,10,29.89,10.0,SSW,4.6,-,N/A,,Clear,210,2013-05-21 18:35:00
11:55 AM,91.4,28.4,10,29.89,10.0,NNE,5.8,-,N/A,,Clear,30,2013-05-21 18:55:00
12:15 PM,91.4,28.4,10,29.88,10.0,East,4.6,-,N/A,,Clear,100,2013-05-21 19:15:00
12:35 PM,89.6,28.4,11,29.87,10.0,Calm,Calm,-,N/A,,Clear,0,2013-05-21 19:35:00
12:55 PM,93.2,28.4,10,29.87,10.0,SSW,4.6,-,N/A,,Clear,200,2013-05-21 19:55:00
1:15 PM,93.2,28.4,10,29.86,10.0,SSW,6.9,-,N/A,,Clear,200,2013-05-21 20:15:00
1:35 PM,93.2,30.2,11,29.86,10.0,WNW,8.1,-,N/A,,Clear,300,2013-05-21 20:35:00
1:55 PM,93.2,30.2,11,29.85,10.0,NW,8.1,-,N/A,,Clear,310,2013-05-21 20:55:00
2:15 PM,93.2,30.2,11,29.84,10.0,Calm,Calm,-,N/A,,Clear,0,2013-05-21 21:15:00
2:35 PM,93.2,30.2,11,29.83,10.0,NW,6.9,-,N/A,,Clear,320,2013-05-21 21:35:00
2:55 PM,95.0,30.2,10,29.82,10.0,West,9.2,-,N/A,,Clear,270,2013-05-21 21:55:00
3:15 PM,95.0,30.2,10,29.81,10.0,West,8.1,-,N/A,,Clear,280,2013-05-21 22:15:00
3:35 PM,95.0,30.2,10,29.80,10.0,Calm,Calm,-,N/A,,Clear,0,2013-05-21 22:35:00
3:55 PM,95.0,30.2,10,29.79,10.0,ESE,4.6,-,N/A,,Clear,110,2013-05-21 22:55:00
4:15 PM,96.8,30.2,10,29.78,10.0,West,13.8,-,N/A,,Clear,270,2013-05-21 23:15:00
4:35 PM,93.2,30.2,11,29.78,10.0,WSW,4.6,-,N/A,,Clear,240,2013-05-21 23:35:00
4:55 PM,95.0,30.2,10,29.77,10.0,West,11.5,17.3,N/A,,Clear,280,2013-05-21 23:55:00
5:15 PM,93.2,30.2,11,29.76,10.0,West,8.1,-,N/A,,Clear,270,2013-05-22 00:15:00
5:35 PM,93.2,30.2,11,29.76,10.0,WNW,8.1,-,N/A,,Clear,290,2013-05-22 00:35:00
5:55 PM,93.2,30.2,11,29.76,10.0,WNW,11.5,-,N/A,,Clear,290,2013-05-22 00:55:00
6:15 PM,93.2,30.2,11,29.76,10.0,West,8.1,-,N/A,,Clear,270,2013-05-22 01:15:00
6:35 PM,93.2,28.4,10,29.76,10.0,West,11.5,-,N/A,,Clear,280,2013-05-22 01:35:00
6:55 PM,91.4,28.4,10,29.76,10.0,West,9.2,-,N/A,,Clear,280,2013-05-22 01:55:00
7:15 PM,91.4,28.4,10,29.76,10.0,WNW,6.9,-,N/A,,Clear,290,2013-05-22 02:15:00
7:35 PM,89.6,26.6,10,29.76,10.0,WNW,5.8,-,N/A,,Clear,290,2013-05-22 02:35:00
7:55 PM,87.8,24.8,10,29.76,10.0,WNW,5.8,-,N/A,,Clear,290,2013-05-22 02:55:00
8:15 PM,87.8,24.8,10,29.76,10.0,WNW,6.9,-,N/A,,Clear,290,2013-05-22 03:15:00
8:35 PM,87.8,24.8,10,29.77,10.0,WNW,5.8,-,N/A,,Clear,300,2013-05-22 03:35:00
8:55 PM,86.0,24.8,11,29.77,10.0,WNW,5.8,-,N/A,,Clear,300,2013-05-22 03:55:00
9:35 PM,82.4,21.2,10,29.77,10.0,NW,3.5,-,N/A,,Clear,310,2013-05-22 04:35:00
9:55 PM,82.4,21.2,10,29.77,10.0,NNW,3.5,-,N/A,,Clear,330,2013-05-22 04:55:00
10:15 PM,78.8,19.4,11,29.77,10.0,NNW,3.5,-,N/A,,Clear,330,2013-05-22 05:15:00
10:35 PM,75.2,17.6,11,29.77,10.0,Calm,Calm,-,N/A,,Clear,0,2013-05-22 05:35:00
10:55 PM,73.4,17.6,12,29.77,10.0,Calm,Calm,-,N/A,,Clear,0,2013-05-22 05:55:00
11:15 PM,73.4,17.6,12,29.76,10.0,Calm,Calm,-,N/A,,Clear,0,2013-05-22 06:15:00
11:35 PM,73.4,17.6,12,29.77,10.0,SW,3.5,-,N/A,,Clear,230,2013-05-22 06:35:00
11:55 PM,71.6,21.2,15,29.77,10.0,SW,3.5,-,N/A,,Clear,220,2013-05-22 06:55:00